GALAXY 35 (G-35)

Last updated on Wed Sep 17 2025 00:02:51 GMT+0000 (Coordinated Universal Time)

1 54741U 22170A 25259.06566477 -.00000181 00000+0 00000+0 0 9996 2 54741 0.0158 130.8343 0001952 50.1258 104.8504 1.00271860 10140
UTC large
Height (km)
Speed (km/s)
/
Latitude / Longitude
Inclination (degrees)
Orbital Period (minutes)
Azimuth
Elevation
Range (km)
Doppler Factor

Next 0 passes for location: London (51.5072 / 0.1276)

Sorry there are no passes over London.